Weather History for Minchumina, AK

Change the Weather History Date:

Monday, May 12, 2014

  Actual Average Record
Temperature  
Mean Temperature 54 °F -  
Max Temperature 69 °F 50 °F 69 °F (2014)
Min Temperature 39 °F 32 °F 28 °F (1998)
Degree Days  
Heating Degree Days 11    
Growing Degree Days 4 (Base 50)    
Moisture  
Dew Point 28 °F    
Average Humidity 35    
Maximum Humidity 65    
Minimum Humidity 21    
Precipitation  
Precipitation 0.00 in - - ()
Sea Level Pressure  
Sea Level Pressure 30.22 in    
Wind  
Wind Speed 1 mph (SSE)    
Max Wind Speed 8 mph    
Max Gust Speed -    
Visibility 10 miles    
Events      
Averages and records for this station are not official NWS values.
T = Trace of Precipitation, MM = Missing Value Source: NWS Daily Summary

Daily Weather History Graph

Daily Weather History Graph

Search for Another Location

Airport:

Trip Planner

Search our weather history database for the weather conditions in past years. The results will help you decide how hot, cold, wet, or windy it might be!

Date:

Astronomy

May. 12, 2014 Rise Set
Actual Time 5:06 AM AKDT 11:07 PM AKDT
Civil Twilight 3:37 AM AKDT 12:38 AM AKDT
Nautical Twilight Sun does not rise Sun does not rise
Astronomical Twilight Sun does not rise Sun does not rise
Moon 8:28 PM AKDT (5/12) 4:52 AM AKDT (5/12)
Length of Visible Light 21h 00m
Length of Day
18h 01m
Waxing Gibbous, 95% of the Moon is Illuminated
May 12
Waxing Gibbous
May 14
Full
May 21
Last Quarter
May 28
New
Jun 5
First Quarter

Hourly Weather History & Observations

Time (AKDT) Temp. Dew Point Humidity Pressure Visibility Wind Dir Wind Speed Gust Speed Precip Events Conditions
12:16 AM 55.4 °F 21.2 °F 26% 30.21 in 10.0 mi Calm Calm - N/A   Clear
12:36 AM 51.8 °F 21.2 °F 30% 30.21 in 10.0 mi Calm Calm - N/A   Clear
12:56 AM 53.6 °F 21.2 °F 28% 30.22 in 10.0 mi Calm Calm - N/A   Clear
1:16 AM 53.6 °F 21.2 °F 28% 30.22 in 10.0 mi Calm Calm - N/A   Clear
1:36 AM 48.2 °F 26.6 °F 43% 30.22 in 10.0 mi Calm Calm - N/A   Clear
1:56 AM 53.6 °F 21.2 °F 28% 30.22 in 10.0 mi Calm Calm - N/A   Clear
2:16 AM 50.0 °F 24.8 °F 37% 30.22 in 10.0 mi Calm Calm - N/A   Clear
2:36 AM 50.0 °F 23.0 °F 35% 30.23 in 10.0 mi Calm Calm - N/A   Clear
2:56 AM 51.8 °F 23.0 °F 33% 30.23 in 10.0 mi Calm Calm - N/A   Clear
3:16 AM 51.8 °F 23.0 °F 33% 30.23 in 10.0 mi Calm Calm - N/A   Clear
3:36 AM 48.2 °F 24.8 °F 40% 30.23 in 10.0 mi Calm Calm - N/A   Clear
3:56 AM 41.0 °F 26.6 °F 57% 30.24 in 10.0 mi Calm Calm - N/A   Clear
4:16 AM 44.6 °F 24.8 °F 46% 30.24 in 10.0 mi Calm Calm - N/A   Clear
4:36 AM 44.6 °F 24.8 °F 46% 30.23 in 10.0 mi Calm Calm - N/A   Clear
4:56 AM 42.8 °F 24.8 °F 49% 30.24 in 10.0 mi Calm Calm - N/A   Clear
5:16 AM 41.0 °F 28.4 °F 61% 30.24 in 10.0 mi Calm Calm - N/A   Clear
5:36 AM 39.2 °F 28.4 °F 65% 30.24 in 10.0 mi Calm Calm - N/A   Clear
6:16 AM 39.2 °F 28.4 °F 65% 30.25 in 10.0 mi Calm Calm - N/A   Clear
6:36 AM 39.2 °F 26.6 °F 61% 30.25 in 10.0 mi Calm Calm - N/A   Clear
6:56 AM 39.2 °F 26.6 °F 61% 30.26 in 10.0 mi Calm Calm - N/A   Clear
7:16 AM 41.0 °F 30.2 °F 65% 30.26 in 10.0 mi Calm Calm - N/A   Clear
7:36 AM 42.8 °F 30.2 °F 61% 30.26 in 10.0 mi Calm Calm - N/A   Clear
7:56 AM 44.6 °F 28.4 °F 53% 30.26 in 10.0 mi Calm Calm - N/A   Clear
8:16 AM 44.6 °F 30.2 °F 57% 30.26 in 10.0 mi Calm Calm - N/A   Clear
8:36 AM 46.4 °F 30.2 °F 53% 30.26 in 10.0 mi Calm Calm - N/A   Clear
8:56 AM 46.4 °F 28.4 °F 50% 30.26 in 10.0 mi Calm Calm - N/A   Clear
9:16 AM 50.0 °F 28.4 °F 43% 30.26 in 10.0 mi Calm Calm - N/A   Clear
9:36 AM 51.8 °F 28.4 °F 41% 30.26 in 10.0 mi Calm Calm - N/A   Clear
9:56 AM 53.6 °F 28.4 °F 38% 30.26 in 10.0 mi Calm Calm - N/A   Clear
10:16 AM 55.4 °F 28.4 °F 36% 30.26 in 10.0 mi Calm Calm - N/A   Clear
10:36 AM 57.2 °F 28.4 °F 33% 30.25 in 10.0 mi Calm Calm - N/A   Clear
10:56 AM 59.0 °F 28.4 °F 31% 30.25 in 10.0 mi Calm Calm - N/A   Clear
11:36 AM 60.8 °F 28.4 °F 29% 30.25 in 10.0 mi SW 3.5 mph - N/A   Clear
11:56 AM 62.6 °F 28.4 °F 27% 30.26 in 10.0 mi South 3.5 mph - N/A   Clear
12:16 PM 62.6 °F 26.6 °F 26% 30.25 in 10.0 mi SSW 5.8 mph - N/A   Clear
12:36 PM 64.4 °F 26.6 °F 24% 30.25 in 10.0 mi South 3.5 mph - N/A   Clear
12:56 PM 66.2 °F 28.4 °F 24% 30.25 in 10.0 mi SSE 5.8 mph - N/A   Clear
1:16 PM 64.4 °F 26.6 °F 24% 30.24 in 10.0 mi East 8.1 mph - N/A   Clear
1:36 PM 64.4 °F 28.4 °F 26% 30.24 in 10.0 mi ESE 6.9 mph - N/A   Clear
1:56 PM 66.2 °F 28.4 °F 24% 30.23 in 10.0 mi ESE 6.9 mph - N/A   Clear
2:16 PM 68.0 °F 30.2 °F 24% 30.23 in 10.0 mi ESE 5.8 mph - N/A   Clear
2:36 PM 66.2 °F 28.4 °F 24% 30.23 in 10.0 mi ESE 6.9 mph - N/A   Clear
2:56 PM 68.0 °F 28.4 °F 23% 30.22 in 10.0 mi ESE 6.9 mph - N/A   Clear
3:16 PM 68.0 °F 28.4 °F 23% 30.22 in 10.0 mi ESE 5.8 mph - N/A   Clear
3:36 PM 66.2 °F 28.4 °F 24% 30.21 in 10.0 mi East 6.9 mph - N/A   Clear
3:56 PM 68.0 °F 30.2 °F 24% 30.21 in 10.0 mi ENE 3.5 mph - N/A   Clear
4:16 PM 69.8 °F 30.2 °F 23% 30.20 in 10.0 mi East 5.8 mph - N/A   Clear
4:36 PM 66.2 °F 28.4 °F 24% 30.20 in 10.0 mi ESE 3.5 mph - N/A   Clear
4:56 PM 66.2 °F 30.2 °F 26% 30.19 in 10.0 mi East 3.5 mph - N/A   Scattered Clouds
5:16 PM 69.8 °F 32.0 °F 25% 30.19 in 10.0 mi ESE 5.8 mph - N/A   Mostly Cloudy
5:36 PM 68.0 °F 30.2 °F 24% 30.18 in 10.0 mi Calm Calm - N/A   Mostly Cloudy
5:56 PM 69.8 °F 28.4 °F 21% 30.18 in 10.0 mi East 3.5 mph - N/A   Partly Cloudy
6:16 PM 68.0 °F 30.2 °F 24% 30.17 in 10.0 mi Calm Calm - N/A   Mostly Cloudy
6:36 PM 68.0 °F 30.2 °F 24% 30.17 in 10.0 mi SSW 4.6 mph - N/A   Overcast
6:56 PM 68.0 °F 30.2 °F 24% 30.17 in 10.0 mi SSW 5.8 mph - N/A   Mostly Cloudy
7:16 PM 68.0 °F 30.2 °F 24% 30.17 in 10.0 mi SSW 5.8 mph - N/A   Overcast
7:36 PM 66.2 °F 30.2 °F 26% 30.17 in 10.0 mi SSW 4.6 mph - N/A   Overcast
7:56 PM 66.2 °F 32.0 °F 28% 30.16 in 10.0 mi South 5.8 mph - N/A   Overcast
8:16 PM 66.2 °F 30.2 °F 26% 30.16 in 10.0 mi SSW 6.9 mph - N/A   Overcast
8:36 PM 66.2 °F 32.0 °F 28% 30.16 in 10.0 mi SSW 8.1 mph - N/A   Overcast
8:56 PM 66.2 °F 30.2 °F 26% 30.16 in 10.0 mi SW 3.5 mph - N/A   Mostly Cloudy
9:16 PM 66.2 °F 33.8 °F 30% 30.16 in 10.0 mi SW 3.5 mph - N/A   Partly Cloudy
9:36 PM 64.4 °F 33.8 °F 32% 30.16 in 10.0 mi WSW 3.5 mph - N/A   Clear
10:16 PM 62.6 °F 30.2 °F 30% 30.16 in 10.0 mi Calm Calm - N/A   Clear
10:36 PM 62.6 °F 30.2 °F 30% 30.16 in 10.0 mi Calm Calm - N/A   Clear
10:56 PM 60.8 °F 30.2 °F 31% 30.16 in 10.0 mi Calm Calm - N/A   Clear
11:16 PM 60.8 °F 30.2 °F 31% 30.16 in 10.0 mi Calm Calm - N/A   Clear
11:36 PM 57.2 °F 30.2 °F 36% 30.17 in 10.0 mi Calm Calm - N/A   Clear
11:56 PM 59.0 °F 30.2 °F 34% 30.17 in 10.0 mi Calm Calm - N/A   Clear